OPS 4682 DEB, 38368

Orbit data source: Space-Track

OPS 4682 DEB, 38368 is space debris in LEO originally from a launch on Sat, 03 Apr 1965 UTC launched from the Air Force Western Test Range (AFWTR). Debris objects in space refer to the collection of defunct objects orbiting the Earth. Examples of debris include non-operational satellites, rocket bodies, and fragments generated from explosions, collisions, or faulty payload assembly.

Loading next visibility...
Identifier
38368, 1965-027BV
Orbit
LEO
Country
Flag of USUS
Related business
Manufacturer
Unknown
Mission
Spacecraft
Bus & Motor
Unknown
Mass
Unknown
Launch date (UTC)
1965-04-03 (61 years ago)
Launch vehicle
Unknown
Launch site
Air Force Western Test Range (AFWTR)
Object type
Payload
Rocket body
Debris
Shape & HBR
Unknown shape, 0.1 m
Radar Cross Section
Small (<0.1 m²)

Expand to show TLE details & history
Last TLE update: 3 days ago

TLE from 3 days ago
0 OPS 4682 DEB
1 38368U 65027BV  26102.73763983  .00000419  00000-0  14456-2 0  9991
2 38368  90.2525  11.4874 0021972 319.8435  40.1060 12.96068496654212
Epoch: 2026-04-12T17:42Z
TLE epoch observation values (Epoch: 2026-04-12T17:42:12.081Z)
Latitude
-0.00006°
Longitude
-95.00123°
Altitude
1,267.555 km
Speed
7.228 km/s
True Right ascension
00h 45m 56s
True Declination
0° 00' 00"
Sunlit
Object was in daylight at epoch
Visualization orbit readout
Latitude
Unknown
Longitude
Unknown
Altitude
Unknown
Speed
Unknown
Apparent Right ascension
Unknown
Apparent Declination
Unknown
Sunlit
N/A
Visualization observer readout
Local Sidereal Time
19:11:03
Azimuth
Unknown
Elevation
Unknown
Doppler factor
Unknown
Orbital elements
Apogee altitude
1,291.477 km
Perigee altitude
1,257.848 km
Semi-major axis
7,652.799 km
Eccentricity
0.0022
Inclination
90.2525°
RAAN
11.4874°
Arg. of periapsis
319.8435°
True anomaly
40.26854°
Mean anomaly
40.106°
Eccentric anomaly
40.18724°
Mean motion
3.242 °/min
Orbital period
111.04 mins
BSTAR
0.0014456
Loading maneuver chart data...
Computing Atmospheric mass density...
Loading historical data...
Loading historical data...
Loading historical data...
Loading historical data...
Loading historical data...
Loading historical data...
Loading historical data...

Documentation

Showing up to 5 results
|